Clines Corner, NM

1:18 AM MDT on April 30, 2017 (GMT -0600)
Clines Corner

Weather History for KCQC - February, 2013

Change the Weather History Date:

Monday, February 11, 2013

  Actual Average (KSAF) Record (KSAF)
Temperature  
Mean Temperature 26 °F -  
Max Temperature 36 °F 0 °F 66 °F (2017)
Min Temperature 15 °F - 7 °F (2006)
Degree Days  
Heating Degree Days 40    
Moisture  
Dew Point 11 °F    
Average Humidity 56    
Maximum Humidity 81    
Minimum Humidity 36    
Precipitation  
Precipitation 0.00 in - - ()
Sea Level Pressure  
Sea Level Pressure 29.98 in    
Wind  
Wind Speed 9 mph (ENE)    
Max Wind Speed 15 mph    
Max Gust Speed 22 mph    
Visibility 10 miles    
Events      
Averages and records for this station are not official NWS values.
T = Trace of Precipitation, MM = Missing Value Source: NWS Daily Summary

Daily Weather History Graph

Daily Weather History Graph

Search for Another Location

Airport or City:

Trip Planner

Search our weather history database for the weather conditions in past years. The results will help you decide how hot, cold, wet, or windy it might be!

Date:

Astronomy

Feb. 11, 2013 Rise Set
Actual Time 6:52 AM MST 5:41 PM MST
Civil Twilight 6:26 AM MST 6:07 PM MST
Nautical Twilight 5:56 AM MST 6:37 PM MST
Astronomical Twilight 5:27 AM MST 7:07 PM MST
Moon 7:24 AM MST (2/11) 7:34 PM MST (2/11)
Length of Visible Light 11h 41m
Length of Day
10h 49m
Waxing Crescent, 3% of the Moon is Illuminated
Feb 11
Waxing Crescent
Feb 17
First Quarter
Feb 25
Full
Mar 4
Last Quarter
Mar 11
New

Hourly Weather History & Observations

Time (MST) Temp. Windchill Dew Point Humidity Pressure Visibility Wind Dir Wind Speed Gust Speed Precip Events Conditions
12:53 AM 19.9 °F 12.1 °F 5.0 °F 52% 29.96 in 10.0 mi West 5.8 mph - N/A   Clear
1:53 AM 17.1 °F 3.6 °F 5.0 °F 59% 29.97 in 10.0 mi WSW 12.7 mph - N/A   Clear
2:53 AM 18.0 °F 6.1 °F 6.1 °F 60% 29.96 in 10.0 mi West 10.4 mph - N/A   Clear
3:53 AM 15.1 °F 6.4 °F 5.0 °F 64% 29.99 in 10.0 mi ESE 5.8 mph - N/A   Clear
4:53 AM 18.0 °F 7.7 °F 7.0 °F 62% 29.99 in 10.0 mi East 8.1 mph - N/A   Clear
5:53 AM 17.1 °F 7.6 °F 7.0 °F 65% 30.04 in 10.0 mi ENE 6.9 mph - N/A   Clear
6:53 AM 16.0 °F 5.3 °F 7.0 °F 68% 30.08 in 10.0 mi ENE 8.1 mph - N/A   Clear
7:53 AM 21.0 °F 10.6 °F 10.0 °F 63% 30.07 in 10.0 mi ENE 9.2 mph - N/A   Clear
8:53 AM 23.0 °F 10.1 °F 10.0 °F 58% 30.08 in 10.0 mi East 15.0 mph - N/A   Clear
9:53 AM 27.0 °F 15.6 °F 10.9 °F 51% 30.06 in 10.0 mi East 13.8 mph - N/A   Clear
10:53 AM 30.0 °F 19.5 °F 10.9 °F 45% 30.01 in 10.0 mi East 13.8 mph - N/A   Clear
11:53 AM 32.0 °F 22.1 °F 10.9 °F 42% 29.99 in 10.0 mi East 13.8 mph 18.4 mph N/A   Clear
12:53 PM 34.0 °F 28.0 °F 10.9 °F 38% 29.97 in 10.0 mi ESE 6.9 mph - N/A   Clear
1:53 PM 36.0 °F 32.1 °F 10.9 °F 36% 29.94 in 10.0 mi Variable 4.6 mph - N/A   Partly Cloudy
2:53 PM 36.0 °F 27.1 °F 10.9 °F 36% 29.92 in 10.0 mi East 13.8 mph 21.9 mph N/A   Mostly Cloudy
3:53 PM 34.0 °F 26.0 °F 10.9 °F 38% 29.94 in 10.0 mi ESE 10.4 mph - N/A   Overcast
4:53 PM 32.0 °F 22.1 °F 12.9 °F 45% 29.94 in 10.0 mi East 13.8 mph - N/A   Overcast
5:53 PM 30.9 °F 22.8 °F 16.0 °F 54% 29.95 in 10.0 mi ENE 9.2 mph - N/A   Overcast
6:53 PM 32.0 °F 25.6 °F 16.0 °F 52% 29.97 in 10.0 mi WNW 6.9 mph - N/A   Overcast
7:53 PM 28.9 °F 18.6 °F 15.1 °F 56% 29.96 in 10.0 mi North 12.7 mph - N/A   Overcast
8:53 PM 25.0 °F 15.5 °F 16.0 °F 69% 29.99 in 10.0 mi NNW 9.2 mph - N/A   Scattered Clouds
9:53 PM 23.0 °F 11.7 °F 18.0 °F 81% 29.98 in 10.0 mi North 11.5 mph - N/A   Scattered Clouds
10:53 PM 23.0 °F 13.9 °F 18.0 °F 81% 29.95 in 10.0 mi North 8.1 mph - N/A   Clear
11:53 PM 25.0 °F 15.5 °F 17.1 °F 72% 29.93 in 10.0 mi East 9.2 mph - N/A   Overcast